Weather History for PAGL - July, 2013

Change the Weather History Date:

Friday, July 5, 2013

  Actual Average Record
Temperature  
Mean Temperature 49 °F -  
Max Temperature 50 °F - - ()
Min Temperature 48 °F - - ()
Degree Days  
Heating Degree Days 16    
Moisture  
Dew Point 46 °F    
Average Humidity 91    
Maximum Humidity 100    
Minimum Humidity 82    
Precipitation  
Precipitation 0.17 in - - ()
Sea Level Pressure  
Sea Level Pressure 29.87 in    
Wind  
Wind Speed 14 mph (South)    
Max Wind Speed 23 mph    
Max Gust Speed 26 mph    
Visibility 9 miles    
Events      
T = Trace of Precipitation, MM = Missing Value Source: NWS Daily Summary

Daily Weather History Graph

Daily Weather History Graph

Search for Another Location

Airport or City:

Trip Planner

Search our weather history database for the weather conditions in past years. The results will help you decide how hot, cold, wet, or windy it might be!

Date:

Astronomy

Jul. 05, 2013 Rise Set
Actual Time 4:30 AM AKDT 1:20 AM AKDT
Civil Twilight Sun does not set Sun does not set
Nautical Twilight Sun does not set Sun does not set
Astronomical Twilight Sun does not set Sun does not set
Moon 3:26 AM AKDT (7/5) 10:42 PM AKDT (7/5)
Length of Visible Light 24h 00m
Length of Day
20h 49m
Waning Crescent, 5% of the Moon is Illuminated
Jul 5
Waning Crescent
Jul 7
New
Jul 15
First Quarter
Jul 22
Full
Jul 29
Last Quarter

Hourly Weather History & Observations

Time (AKDT) Temp. Dew Point Humidity Pressure Visibility Wind Dir Wind Speed Gust Speed Precip Events Conditions
12:16 AM 48.2 °F 44.6 °F 87% 29.85 in 10.0 mi South 16.1 mph - N/A   Mostly Cloudy
12:36 AM 48.2 °F 44.6 °F 87% 29.85 in 10.0 mi South 13.8 mph - N/A   Overcast
12:56 AM 50.0 °F 44.6 °F 82% 29.85 in 10.0 mi South 13.8 mph - N/A   Mostly Cloudy
1:16 AM 50.0 °F 44.6 °F 82% 29.85 in 10.0 mi South 15.0 mph - N/A   Mostly Cloudy
1:36 AM 50.0 °F 44.6 °F 82% 29.85 in 10.0 mi South 12.7 mph - N/A   Mostly Cloudy
1:56 AM 48.2 °F 46.4 °F 93% 29.85 in 9.0 mi SSW 12.7 mph - N/A   Overcast
2:16 AM 48.2 °F 46.4 °F 93% 29.85 in 9.0 mi SSW 13.8 mph - N/A   Overcast
2:36 AM 48.2 °F 46.4 °F 93% 29.86 in 8.0 mi South 10.4 mph - 0.03 in   Mostly Cloudy
2:56 AM 48.2 °F 46.4 °F 93% 29.86 in 10.0 mi South 12.7 mph - 0.03 in   Mostly Cloudy
3:16 AM 48.2 °F 46.4 °F 93% 29.86 in 10.0 mi South 16.1 mph - N/A   Overcast
3:36 AM 48.2 °F 44.6 °F 87% 29.86 in 10.0 mi South 15.0 mph - N/A   Overcast
3:56 AM 50.0 °F 46.4 °F 87% 29.85 in 10.0 mi South 17.3 mph - N/A   Overcast
4:16 AM 48.2 °F 46.4 °F 93% 29.85 in 10.0 mi South 18.4 mph 23.0 mph N/A   Mostly Cloudy
4:36 AM 50.0 °F 46.4 °F 87% 29.85 in 10.0 mi South 18.4 mph 23.0 mph N/A   Overcast
4:56 AM 48.2 °F 46.4 °F 93% 29.85 in 9.0 mi South 17.3 mph - N/A   Mostly Cloudy
5:16 AM 50.0 °F 46.4 °F 87% 29.84 in 10.0 mi South 18.4 mph - N/A   Mostly Cloudy
5:36 AM 50.0 °F 46.4 °F 87% 29.84 in 10.0 mi South 20.7 mph - N/A   Overcast
5:56 AM 48.2 °F 46.4 °F 93% 29.84 in 9.0 mi South 20.7 mph 25.3 mph N/A   Mostly Cloudy
6:16 AM 48.2 °F 46.4 °F 93% 29.84 in 2.5 mi South 23.0 mph 26.5 mph 0.02 in   Overcast
6:36 AM 48.2 °F 46.4 °F 93% 29.84 in 8.0 mi South 20.7 mph - 0.03 in   Overcast
6:56 AM 48.2 °F 46.4 °F 93% 29.84 in 10.0 mi South 21.9 mph 25.3 mph 0.04 in   Overcast
7:16 AM 48.2 °F 46.4 °F 93% 29.84 in 10.0 mi South 23.0 mph 26.5 mph N/A   Overcast
7:36 AM 48.2 °F 46.4 °F 93% 29.84 in 10.0 mi South 19.6 mph 23.0 mph N/A   Overcast
7:56 AM 48.2 °F 46.4 °F 93% 29.84 in 7.0 mi South 21.9 mph 25.3 mph N/A   Overcast
8:16 AM 48.2 °F 46.4 °F 93% 29.84 in 5.0 mi South 20.7 mph 26.5 mph 0.01 in   Overcast
8:36 AM 48.2 °F 46.4 °F 93% 29.84 in 9.0 mi South 20.7 mph 25.3 mph 0.01 in   Overcast
8:56 AM 48.2 °F 46.4 °F 93% 29.84 in 4.0 mi South 20.7 mph - 0.01 in   Overcast
9:16 AM 48.2 °F 46.4 °F 93% 29.85 in 5.0 mi South 19.6 mph 24.2 mph N/A   Overcast
9:36 AM 48.2 °F 46.4 °F 93% 29.85 in 4.0 mi South 18.4 mph 25.3 mph N/A   Overcast
9:56 AM 48.2 °F 46.4 °F 93% 29.85 in 5.0 mi South 17.3 mph 23.0 mph N/A   Overcast
10:16 AM 48.2 °F 46.4 °F 93% 29.85 in 9.0 mi SSW 17.3 mph - N/A   Overcast
10:36 AM 48.2 °F 46.4 °F 93% 29.86 in 8.0 mi SSW 13.8 mph - N/A   Overcast
10:56 AM 48.2 °F 46.4 °F 93% 29.86 in 5.0 mi SSW 16.1 mph - N/A   Overcast
11:16 AM 48.2 °F 46.4 °F 93% 29.86 in 10.0 mi SSW 16.1 mph - N/A   Overcast
11:36 AM 48.2 °F 46.4 °F 93% 29.87 in 10.0 mi SSW 12.7 mph - N/A   Overcast
11:56 AM 48.2 °F 46.4 °F 93% 29.87 in 9.0 mi SSW 12.7 mph - N/A   Overcast
12:16 PM 48.2 °F 46.4 °F 93% 29.87 in 10.0 mi SSW 15.0 mph - N/A   Overcast
12:36 PM 48.2 °F 44.6 °F 87% 29.88 in 10.0 mi SSW 12.7 mph - N/A   Overcast
12:56 PM 48.2 °F 46.4 °F 93% 29.88 in 10.0 mi SSW 10.4 mph 17.3 mph 0.02 in   Overcast
1:16 PM 48.2 °F 46.4 °F 93% 29.89 in 10.0 mi SSW 12.7 mph - 0.01 in   Overcast
1:36 PM 48.2 °F 46.4 °F 93% 29.89 in 10.0 mi SSW 11.5 mph - 0.01 in   Overcast
1:56 PM 48.2 °F 46.4 °F 93% 29.89 in 10.0 mi SSW 11.5 mph - 0.01 in   Overcast
2:16 PM 48.2 °F 46.4 °F 93% 29.90 in 10.0 mi SSW 9.2 mph - N/A   Overcast
2:36 PM 48.2 °F 46.4 °F 93% 29.90 in 10.0 mi SSW 9.2 mph - N/A   Overcast
2:56 PM 48.2 °F 46.4 °F 93% 29.90 in 10.0 mi SSW 11.5 mph - 0.01 in   Overcast
3:16 PM 48.2 °F 46.4 °F 93% 29.90 in 9.0 mi South 11.5 mph - N/A   Overcast
3:36 PM 48.2 °F 46.4 °F 93% 29.90 in 10.0 mi South 11.5 mph - 0.01 in   Overcast
3:56 PM 48.2 °F 46.4 °F 93% 29.90 in 10.0 mi South 8.1 mph - 0.01 in   Overcast
4:16 PM 48.2 °F 46.4 °F 93% 29.90 in 10.0 mi South 11.5 mph - N/A   Overcast
4:36 PM 50.0 °F 46.4 °F 87% 29.90 in 10.0 mi South 9.2 mph - 0.01 in   Overcast
4:56 PM 50.0 °F 46.4 °F 87% 29.90 in 10.0 mi South 8.1 mph - 0.01 in   Overcast
5:16 PM 50.0 °F 46.4 °F 87% 29.90 in 10.0 mi SSW 8.1 mph - N/A   Overcast
5:36 PM 50.0 °F 46.4 °F 87% 29.90 in 10.0 mi South 8.1 mph - N/A   Overcast
5:56 PM 48.2 °F 46.4 °F 93% 29.89 in 5.0 mi South 8.1 mph - N/A   Overcast
6:16 PM 48.2 °F 46.4 °F 93% 29.89 in 2.0 mi South 6.9 mph - 0.01 in   Overcast
6:36 PM 48.2 °F 46.4 °F 93% 29.89 in 5.0 mi South 9.2 mph - 0.01 in   Overcast
6:56 PM 48.2 °F 48.2 °F 100% 29.89 in 5.0 mi South 6.9 mph - 0.01 in   Overcast
7:16 PM 48.2 °F 48.2 °F 100% 29.89 in 10.0 mi SSE 6.9 mph - N/A   Overcast
7:36 PM 48.2 °F 48.2 °F 100% 29.89 in 10.0 mi South 6.9 mph - 0.01 in   Mostly Cloudy
7:56 PM 50.0 °F 46.4 °F 87% 29.89 in 10.0 mi South 10.4 mph - 0.01 in   Overcast
8:16 PM 50.0 °F 46.4 °F 87% 29.89 in 10.0 mi South 9.2 mph - N/A   Overcast
8:36 PM 50.0 °F 46.4 °F 87% 29.88 in 10.0 mi South 10.4 mph - N/A   Overcast
8:56 PM 48.2 °F 46.4 °F 93% 29.88 in 10.0 mi SSE 9.2 mph - N/A   Overcast
9:16 PM 50.0 °F 46.4 °F 87% 29.88 in 10.0 mi South 9.2 mph - N/A   Mostly Cloudy
9:36 PM 50.0 °F 46.4 °F 87% 29.88 in 10.0 mi South 9.2 mph - N/A   Overcast
9:56 PM 50.0 °F 46.4 °F 87% 29.88 in 10.0 mi South 8.1 mph - N/A   Overcast
10:16 PM 50.0 °F 46.4 °F 87% 29.88 in 10.0 mi South 8.1 mph - 0.01 in   Overcast
10:36 PM 50.0 °F 46.4 °F 87% 29.88 in 10.0 mi SSE 6.9 mph - 0.01 in   Overcast
10:56 PM 50.0 °F 46.4 °F 87% 29.88 in 10.0 mi SSE 8.1 mph - 0.01 in   Mostly Cloudy
11:16 PM 50.0 °F 46.4 °F 87% 29.88 in 10.0 mi SSE 8.1 mph - N/A   Overcast
11:36 PM 50.0 °F 46.4 °F 87% 29.87 in 10.0 mi SSE 8.1 mph - N/A   Overcast
11:56 PM 50.0 °F 46.4 °F 87% 29.88 in 10.0 mi SSE 5.8 mph - N/A   Overcast